FW3843 Weather Reports


time (UTC)temp
F
wind
direction
speed
knots
gust
knots
rain 1hr
in
rain 24hr
in
rain mn
in
humidity
%
barometer
mb
20260506033154 64 207 6.1 8.7 0.00 0.00 0.00 78 1015.5
20260506032154 64 181 7.8 8.7 0.00 0.00 0.00 79 1015.7
20260506031154 65 188 3.5 7.8 0.00 0.00 0.00 78 1015.7
20260506030149 65 174 6.1 7.0 0.00 0.00 0.00 78 1015.9
20260506025148 65 173 5.2 7.0 0.00 0.00 0.00 77 1015.9
20260506024147 66 202 7.8 8.7 0.00 0.00 0.00 76 1015.9
20260506023147 66 178 8.7 11.3 0.00 0.00 0.00 75 1015.6
20260506022147 66 177 7.0 9.6 0.00 0.00 0.00 73 1015.6
20260506021142 67 174 6.1 8.7 0.00 0.00 0.00 72 1015.4
20260506020142 67 220 4.3 8.7 0.00 0.00 0.00 69 1015.3
20260506015137 67 173 9.6 11.3 0.00 0.00 0.00 69 1015.2
20260506014136 68 200 7.8 13.0 0.00 0.00 0.00 67 1015.1
20260506013131 68 198 7.0 13.9 0.00 0.00 0.00 66 1014.9
20260506012129 68 176 6.1 8.7 0.00 0.00 0.00 66 1015.0
20260506011129 69 196 7.8 9.6 0.00 0.00 0.00 64 1014.6
20260506010124 69 164 5.2 9.6 0.00 0.00 0.00 62 1014.6
20260506005124 70 193 6.1 13.9 0.00 0.00 0.00 60 1014.6
20260506004124 70 181 9.6 13.0 0.00 0.00 0.00 61 1014.3
20260506003122 70 168 7.8 8.7 0.00 0.00 0.00 62 1014.3
20260506002120 70 181 4.3 6.1 0.00 0.00 0.00 62 1014.2
20260506001119 71 168 4.3 6.1 0.00 0.00 0.00 61 1014.1
20260506000119 72 167 5.2 6.1 0.00 0.00 0.00 59 1013.9
20260505235120 73 190 7.0 9.6 0.00 0.00 0.00 57 1013.9
20260505234119 74 178 6.1 8.7 0.00 0.00 0.00 57 1013.9
20260505233114 74 165 6.1 7.0 0.00 0.00 0.00 57 1013.8
20260505232114 75 182 6.1 8.7 0.00 0.00 0.00 56 1013.8
20260505231110 75 166 7.8 9.6 0.00 0.00 0.00 56 1013.9
20260505230109 76 166 10.4 13.0 0.00 0.00 0.00 54 1013.5
20260505225108 75 212 7.0 12.2 0.00 0.00 0.00 53 1014.0
20260505224107 76 185 6.1 9.6 0.00 0.00 0.00 53 1013.8
20260505223107 77 191 9.6 12.2 0.00 0.00 0.00 51 1013.9
20260505222105 78 201 7.8 7.8 0.00 0.00 0.00 51 1013.8
20260505221104 78 169 8.7 9.6 0.00 0.00 0.00 50 1013.9
20260505220100 78 183 10.4 11.3 0.00 0.00 0.00 49 1013.9
20260505215055 79 203 9.6 12.2 0.00 0.00 0.00 49 1013.8
20260505214055 79 201 7.0 7.8 0.00 0.00 0.00 49 1013.6
20260505213055 79 174 9.6 13.0 0.00 0.00 0.00 48 1013.8
20260505212055 79 177 8.7 12.2 0.00 0.00 0.00 49 1013.9
20260505211055 78 198 12.2 14.8 0.00 0.00 0.00 49 1014.0
20260505210054 79 189 6.1 9.6 0.00 0.00 0.00 50 1014.0
20260505205049 79 154 11.3 15.6 0.00 0.00 0.00 49 1013.8
20260505204049 79 212 9.6 12.2 0.00 0.00 0.00 47 1014.0
20260505203049 80 170 7.8 9.6 0.00 0.00 0.00 48 1013.7
20260505202046 79 189 6.1 9.6 0.00 0.00 0.00 50 1014.2
20260505201041 80 188 7.8 11.3 0.00 0.00 0.00 46 1014.1
20260505200036 80 197 7.8 11.3 0.00 0.00 0.00 48 1014.5
20260505195035 78 196 7.0 9.6 0.00 0.00 0.00 50 1014.6
20260505194033 79 193 5.2 8.7 0.00 0.00 0.00 52 1014.9
20260505193028 79 147 5.2 8.7 0.00 0.00 0.00 50 1014.9
20260505192024 79 133 9.6 11.3 0.00 0.00 0.00 49 1015.0
20260505191020 79 182 7.8 9.6 0.00 0.00 0.00 48 1015.4
20260505190016 79 179 8.7 13.0 0.00 0.00 0.00 50 1015.5
20260505185015 78 139 7.8 8.7 0.00 0.00 0.00 51 1015.6
20260505184015 78 181 7.0 11.3 0.00 0.00 0.00 52 1015.5
20260505183015 78 183 8.7 11.3 0.00 0.00 0.00 50 1015.6
20260505182014 79 193 6.1 9.6 0.00 0.00 0.00 48 1015.9
20260505181014 79 195 9.6 12.2 0.00 0.00 0.00 47 1015.8
20260505180014 79 185 8.7 11.3 0.00 0.00 0.00 53 1016.0
20260505175012 78 182 3.5 8.7 0.00 0.00 0.00 54 1016.0
20260505174010 78 168 7.8 13.0 0.00 0.00 0.00 53 1016.0
20260505173009 77 273 4.3 8.7 0.00 0.00 0.00 52 1016.1
20260505172008 78 172 6.1 9.6 0.00 0.00 0.00 51 1016.3
20260505171007 77 187 6.1 12.2 0.00 0.00 0.00 55 1016.1
20260505170006 76 240 4.3 11.3 0.00 0.00 0.00 56 1016.2
20260505165003 77 177 7.0 11.3 0.00 0.00 0.00 55 1016.2
20260505164003 76 235 6.1 9.6 0.00 0.00 0.00 53 1016.2
20260505163001 76 181 9.6 13.0 0.00 0.00 0.00 53 1016.4
20260505161959 75 240 6.1 7.8 0.00 0.00 0.00 58 1016.6
20260505160959 75 155 7.0 7.8 0.00 0.00 0.00 57 1016.8
20260505152957 73 254 7.8 12.2 0.00 0.00 0.00 61 1017.2
20260505151955 73 221 6.1 11.3 0.00 0.00 0.00 61 1017.0
20260505150954 73 204 7.8 11.3 0.00 0.00 0.00 60 1016.8
20260505124920 64 183 5.2 7.0 0.00 0.00 0.00 75 1017.1
20260505123919 63 218 6.1 7.0 0.00 0.00 0.00 76 1017.2
20260505122917 63 217 6.1 7.8 0.00 0.00 0.00 76 1017.3
20260505121917 62 217 4.3 6.1 0.00 0.00 0.00 77 1017.0
20260505120916 61 219 3.5 5.2 0.00 0.00 0.00 78 1016.9
20260505115911 60 226 2.6 5.2 0.00 0.00 0.00 79 1016.9
20260505114906 60 203 4.3 5.2 0.00 0.00 0.00 79 1016.8
20260505113904 59 185 2.6 2.6 0.00 0.00 0.00 82 1016.8
20260505112902 58 191 2.6 2.6 0.00 0.00 0.00 83 1016.7
20260505111902 57 193 3.5 4.3 0.00 0.00 0.00 85 1016.5
20260505110859 56 198 0.9 1.7 0.00 0.00 0.00 88 1016.6
20260505101850 55 191 2.6 4.3 0.00 0.00 0.00 86 1015.9
20260505100847 55 191 2.6 2.6 0.00 0.00 0.00 85 1015.7
20260505095845 55 210 1.7 1.7 0.00 0.00 0.00 84 1015.6
20260505094844 56 221 3.5 4.3 0.00 0.00 0.00 84 1015.5
20260505093843 56 212 3.5 5.2 0.00 0.00 0.00 82 1015.6
20260505092838 56 214 2.6 2.6 0.00 0.00 0.00 81 1015.4
20260505091838 57 213 3.5 5.2 0.00 0.00 0.00 80 1015.6
20260505090834 57 216 1.7 4.3 0.00 0.00 0.00 80 1015.4
20260505085829 57 224 2.6 4.3 0.00 0.00 0.00 79 1015.1
20260505084825 57 232 2.6 2.6 0.00 0.00 0.00 79 1015.3
20260505083820 58 221 4.3 6.1 0.00 0.00 0.00 77 1015.1
20260505082820 58 217 2.6 5.2 0.00 0.00 0.00 77 1015.3
20260505081819 58 233 2.6 4.3 0.00 0.00 0.00 77 1015.2
20260505080818 59 213 2.6 6.1 0.00 0.00 0.00 75 1015.2
20260505075815 59 213 4.3 5.2 0.00 0.00 0.00 76 1015.0
20260505074815 59 204 1.7 5.2 0.00 0.00 0.00 76 1015.0
20260505073810 59 178 3.5 5.2 0.00 0.00 0.00 75 1015.2
20260505072810 59 218 2.6 5.2 0.00 0.00 0.00 75 1015.1
20260505071808 59 228 4.3 7.0 0.00 0.00 0.00 74 1014.9
20260505070803 60 221 2.6 6.1 0.00 0.00 0.00 74 1014.9
20260505065800 60 211 3.5 6.1 0.00 0.00 0.00 74 1015.0
20260505064800 59 213 5.2 7.8 0.00 0.00 0.00 74 1014.9
20260505063755 60 219 4.3 7.0 0.00 0.00 0.00 74 1014.8
20260505062754 60 188 6.1 7.0 0.00 0.00 0.00 73 1015.1
20260505061754 60 228 4.3 7.8 0.00 0.00 0.00 74 1015.1
20260505060749 60 210 3.5 6.1 0.00 0.00 0.00 73 1015.1
20260505055747 60 196 4.3 7.0 0.00 0.00 0.00 73 1015.2
20260505054747 60 196 5.2 7.0 0.00 0.00 0.00 73 1015.2
20260505053743 60 219 4.3 7.8 0.00 0.00 0.00 73 1015.4
20260505052742 60 200 4.3 5.2 0.00 0.00 0.00 73 1015.4
20260505051742 61 211 6.1 7.8 0.00 0.00 0.00 72 1015.5
20260505050738 61 204 5.2 6.1 0.00 0.00 0.00 73 1015.3
20260505041734 62 180 6.1 7.0 0.00 0.00 0.00 70 1015.3
20260505040734 62 188 6.1 7.0 0.00 0.00 0.00 70 1015.4
20260505035734 62 189 3.5 6.1 0.00 0.00 0.00 71 1015.4
20260505034733 62 197 7.0 9.6 0.00 0.00 0.00 68 1015.2